Location: Pradons
(44.4746°N, 4.3578°E)
Time: 19:37:20
(UTC+00:00)

Cosmos 1408 - Pass Details

Date: 09 April 2020
Orbit: 470 x 494 km, 82.6° (Epoch: 01 June)

Event Time Altitude Azimuth Distance (km) Brightness Sun altitude
Rises 20:42:26 0° 356° (N) 2,565 6.9 -23.5°
Reaches altitude 10° 20:44:35 10° 1° (N) 1,683 5.8 -23.8°
Enters shadow 20:46:44 31° 18° (NNE) 878 4.0 -24.1°
